Grand Forks, ND

11:54 AM CDT on June 25, 2018 (GMT -0500)
Grand Forks International

Weather History for KGFK - December, 2017

Change the Weather History Date:

Thursday, December 7, 2017

  Actual Average Record
Temperature  
Mean Temperature 16 °F 14 °F  
Max Temperature 29 °F 23 °F 47 °F (1990)
Min Temperature 2 °F 6 °F -24 °F (2013)
Degree Days  
Heating Degree Days 49 51  
Month to date heating degree days 298 345  
Since 1 July heating degree days 2283 2544  
Cooling Degree Days 0 0  
Month to date cooling degree days 0 0  
Year to date cooling degree days 411 379  
Moisture  
Dew Point 14 °F    
Average Humidity 82    
Maximum Humidity 88    
Minimum Humidity 75    
Precipitation  
Precipitation T in 0.02 in 0.35 in (1963)
Month to date precipitation 0.21 0.14  
Year to date precipitation 16.69 20.34  
Snow  
Snow T in 0.30 in 6.00 in (1963)
Month to date snowfall 3.6 2.3  
Since 1 July snowfall 13.8 11.5  
Snow Depth 4.00 in    
Sea Level Pressure  
Sea Level Pressure 30.12 in    
Wind  
Wind Speed 9 mph (West)    
Max Wind Speed 17 mph    
Max Gust Speed 20 mph    
Visibility 10 miles    
Events      
T = Trace of Precipitation, MM = Missing Value Source: NWS Daily Summary

Daily Weather History Graph

Daily Weather History Graph

Search for Another Location

Airport or City:

Astronomy

Dec. 07, 2017 Rise Set
Actual Time 8:04 AM CST 4:35 PM CST
Civil Twilight 7:28 AM CST 5:11 PM CST
Nautical Twilight 6:49 AM CST 5:51 PM CST
Astronomical Twilight 6:11 AM CST 6:28 PM CST
Moon 9:33 PM CST (12/7) 11:37 AM CST (12/7)
Length of Visible Light 9h 43m
Length of Day
8h 31m
Waning Gibbous, 77% of the Moon is Illuminated
Dec 7
Waning Gibbous
Dec 10
Last Quarter
Dec 18
New
Dec 26
First Quarter
Jan 1
Full

Hourly Weather History & Observations

Time (CST) Temp. Windchill Dew Point Humidity Pressure Visibility Wind Dir Wind Speed Gust Speed Precip Events Conditions
12:53 AM 6.1 °F -8.7 °F -0.0 °F 76% 30.43 in 10.0 mi West 10.4 mph - N/A   Partly Cloudy
1:53 AM 6.1 °F -6.8 °F -0.0 °F 76% 30.40 in 10.0 mi WSW 8.1 mph - N/A   Clear
2:53 AM 5.0 °F -9.1 °F -0.9 °F 76% 30.38 in 10.0 mi West 9.2 mph - N/A   Clear
3:53 AM 5.0 °F -10.0 °F -0.0 °F 80% 30.36 in 10.0 mi West 10.4 mph - N/A   Clear
4:53 AM 7.0 °F -8.3 °F 1.0 °F 77% 30.33 in 10.0 mi West 11.5 mph - N/A   Clear
5:53 AM 8.1 °F -5.3 °F 3.0 °F 80% 30.30 in 10.0 mi SW 9.2 mph - N/A   Partly Cloudy
6:53 AM 9.0 °F -5.9 °F 3.9 °F 80% 30.27 in 10.0 mi WSW 11.5 mph - N/A   Scattered Clouds
7:53 AM 10.0 °F -4.5 °F 5.0 °F 80% 30.25 in 10.0 mi West 11.5 mph - N/A   Mostly Cloudy
8:53 AM 10.0 °F -0.9 °F 6.1 °F 84% 30.22 in 10.0 mi WSW 6.9 mph - N/A   Mostly Cloudy
9:53 AM 16.0 °F 4.4 °F 10.9 °F 81% 30.18 in 10.0 mi WSW 9.2 mph - N/A   Overcast
10:53 AM 19.9 °F 9.3 °F 16.0 °F 85% 30.15 in 10.0 mi WSW 9.2 mph - N/A   Overcast
11:53 AM 21.9 °F 9.8 °F 17.1 °F 82% 30.11 in 10.0 mi WSW 12.7 mph - N/A   Overcast
12:53 PM 24.1 °F 13.1 °F 19.0 °F 81% 30.06 in 9.0 mi SW 11.5 mph - 0.00 in   Overcast
1:53 PM 27.0 °F 18.7 °F 21.0 °F 78% 30.03 in 10.0 mi WSW 8.1 mph - N/A   Overcast
2:53 PM 28.0 °F 20.8 °F 21.9 °F 78% 29.99 in 10.0 mi WSW 6.9 mph - N/A   Mostly Cloudy
3:53 PM 28.9 °F 21.9 °F 21.9 °F 75% 29.99 in 10.0 mi West 6.9 mph - N/A   Overcast
4:53 PM 28.0 °F 20.8 °F 23.0 °F 81% 29.98 in 10.0 mi West 6.9 mph - N/A   Overcast
5:39 PM 27.0 °F 19.5 °F 23.0 °F 85% 29.93 in 10.0 mi WNW 6.9 mph - N/A   Overcast
5:53 PM 27.0 °F 20.5 °F 23.0 °F 85% 29.97 in 10.0 mi WNW 5.8 mph - N/A   Overcast
6:53 PM 28.9 °F 20.4 °F 24.1 °F 82% 29.98 in 10.0 mi NW 9.2 mph - N/A   Overcast
7:53 PM 27.0 °F 20.5 °F 23.0 °F 85% 29.98 in 10.0 mi North 5.8 mph - N/A   Overcast
8:53 PM 25.0 °F 18.1 °F 21.9 °F 88% 29.98 in 10.0 mi NNW 5.8 mph - N/A   Overcast
9:53 PM 25.0 °F 17.1 °F 21.9 °F 88% 29.98 in 10.0 mi NNW 6.9 mph - N/A   Overcast
10:53 PM 25.0 °F 15.5 °F 21.9 °F 88% 29.97 in 10.0 mi NW 9.2 mph - N/A   Mostly Cloudy
11:30 PM 24.1 °F 15.2 °F 19.9 °F 84% 29.93 in 10.0 mi NW 8.1 mph - N/A   Mostly Cloudy
11:53 PM 21.9 °F 12.5 °F 19.0 °F 89% 29.98 in 10.0 mi NW 8.1 mph - N/A   Mostly Cloudy